Flag for United Kingdom Weather past 2 weeks in Whitstable, England, United Kingdom

Now
70 °F

Mild.


Feels Like: 70 °F
Forecast: 64 / 72 °F
Wind: 10 mph from Northeast

Location: Manston

Current Time: Jul 24, 2014 at 9:35:49 AM

Latest Report: Jul 24, 2014 at 9:00 AM


Visibility: 10 mi

Pressure: 30.03 "Hg

Humidity: 77%

Dew point: 62 °F

Location of WhitstableLocation

Historic Weather in Whitstable — Graph

°F

Whitstable temperature yesterday

Maximum temperature yesterday: 74 °F (at 4:00 PM)
Minimum temperature yesterday: 64 °F (at 5:00 AM)
Average temperature yesterday: 68 °F

Past Weeks' High & Low Weather Summary

 TemperatureHumidityPressure
High84 °F (Jul 18, 4:00 PM)100% (Jul 11, 9:00 AM)30.20 "Hg (Jul 11, 9:00 AM)
Low53 °F (Jul 14, 6:00 AM)44% (Jul 14, 5:00 PM)29.72 "Hg (Jul 13, 6:00 PM)
Average65 °F82%29.99 "Hg
* Reported Jul 9 9:00 AM — Jul 24 8:00 AM, Whitstable, Weather by CustomWeather, © 2014

Note: Actual official high and low records may vary slightly from our data, if they occured in-between our weather recording intervals... More about our weather records

Advertising

Whitstable weather history for previous 24 hours

 ConditionsComfort  
Time TempWeatherWind HumidityBarometerVisibility
8:00 AM
Jul 24
68 °FMild.10 mph82%30.03 "Hg9 mi
7:00 AM67 °FMild.8 mph88%30.02 "Hg8 mi
6:00 AM65 °FMild.8 mph92%30.02 "Hg7 mi
5:00 AM64 °FMild.9 mph93%30.01 "Hg6 mi
4:00 AM64 °FMild.9 mph92%30.02 "Hg7 mi
3:00 AM64 °FMild.10 mph91%30.02 "Hg9 mi
2:00 AM65 °FMild.10 mph88%30.03 "Hg9 mi
1:00 AM65 °FMild.10 mph85%30.04 "Hg11 mi
12:00 AM66 °FMild.9 mph82%30.05 "Hg12 mi
11:00 PM
Jul 23
67 °FMild.10 mph79%30.05 "Hg12 mi
10:00 PM67 °FMild.10 mph79%30.05 "Hg12 mi
9:00 PM67 °FMild.12 mph79%30.05 "Hg11 mi
8:00 PM70 °FMild.13 mph75%30.04 "Hg11 mi
7:00 PM71 °FMild.14 mph70%30.04 "Hg12 mi
6:00 PM73 °FMild.14 mph65%30.05 "Hg12 mi
4:00 PM74 °FMild.14 mph67%30.06 "Hg11 mi
3:00 PM74 °FMild.12 mph69%30.07 "Hg9 mi
2:00 PM73 °FMild.13 mph72%30.08 "Hg8 mi
1:00 PM72 °FMild.13 mph73%30.09 "Hg8 mi
Weather by CustomWeather, © 2014

See weather overviewHow to use our weather pages